Location: Alpine Heights
(32.8181°N, 116.7809°W)
Time: 00:27:03
(UTC+00:00)

Meteor 2-20 Rocket - Pass Details

Date: 14 April 2021
Orbit: 941 x 959 km, 82.5° (Epoch: 14 May)

Event Time Altitude Azimuth Distance (km) Brightness Sun altitude
Rises 12:24:53 0° 188° (S) 3,598 7.2 -11.6°
Reaches altitude 10° 12:27:22 10° 190° (S) 2,659 6.5 -11.1°
Maximum altitude 12:33:27 78° 276° (W) 974 4.4 -9.9°
Drops below altitude 10° 12:39:36 10° 3° (N) 2,686 7.1 -8.7°
Sets 12:42:07 0° 5° (N) 3,638 7.8 -8.2°
